Time,TemperatureF,DewpointF,PressureIn,WindDirection,WindDirectionDegrees,WindSpeedMPH,WindSpeedGustMPH,Humidity,HourlyPrecipIn,Conditions,Clouds,dailyrainin,SoftwareType,DateUTC
2013-03-31 00:12:00,35.1,33.0,29.75,ESE,105,0.0,-999.0,91,-99.99,,,0.00,weatherlink.com 1.10,2013-03-31 04:12:00,
2013-03-31 00:27:00,34.8,33.0,29.75,ESE,105,0.0,-999.0,92,-99.99,,,0.00,weatherlink.com 1.10,2013-03-31 04:27:00,
2013-03-31 00:42:00,34.4,32.0,29.75,ESE,105,0.0,-999.0,92,-99.99,,,0.00,weatherlink.com 1.10,2013-03-31 04:42:00,
2013-03-31 00:57:00,33.8,32.0,29.74,ESE,105,0.0,-999.0,92,-99.99,,,0.00,weatherlink.com 1.10,2013-03-31 04:57:00,
2013-03-31 01:12:00,32.8,31.0,29.74,ESE,105,0.0,-999.0,91,-99.99,,,0.00,weatherlink.com 1.10,2013-03-31 05:12:00,
2013-03-31 01:27:00,32.1,30.0,29.73,ESE,105,0.0,-999.0,92,-99.99,,,0.00,weatherlink.com 1.10,2013-03-31 05:27:00,
2013-03-31 01:42:00,32.3,31.0,29.72,ESE,105,0.0,-999.0,93,-99.99,,,0.00,weatherlink.com 1.10,2013-03-31 05:42:00,
2013-03-31 01:57:00,33.1,32.0,29.71,ESE,105,0.0,-999.0,94,-99.99,,,0.00,weatherlink.com 1.10,2013-03-31 05:57:00,
2013-03-31 02:12:00,33.1,32.0,29.71,East,96,0.0,-999.0,94,-99.99,,,0.00,weatherlink.com 1.10,2013-03-31 06:12:00,
2013-03-31 02:27:00,33.9,32.0,29.70,ENE,62,1.0,-999.0,94,-99.99,,,0.00,weatherlink.com 1.10,2013-03-31 06:27:00,
2013-03-31 02:42:00,34.8,33.0,29.69,WSW,237,0.0,-999.0,93,-99.99,,,0.00,weatherlink.com 1.10,2013-03-31 06:42:00,
2013-03-31 02:57:00,34.8,33.0,29.68,SSW,198,1.0,-999.0,92,-99.99,,,0.00,weatherlink.com 1.10,2013-03-31 06:57:00,
2013-03-31 03:12:00,35.0,33.0,29.68,North,11,2.0,-999.0,92,-99.99,,,0.00,weatherlink.com 1.10,2013-03-31 07:12:00,
2013-03-31 03:27:00,35.1,33.0,29.67,NE,52,1.0,-999.0,91,-99.99,,,0.00,weatherlink.com 1.10,2013-03-31 07:27:00,
2013-03-31 03:42:00,35.2,33.0,29.66,SSE,156,0.0,-999.0,91,-99.99,,,0.00,weatherlink.com 1.10,2013-03-31 07:42:00,
2013-03-31 03:57:00,35.3,33.0,29.66,East,80,1.0,-999.0,90,-99.99,,,0.00,weatherlink.com 1.10,2013-03-31 07:57:00,
2013-03-31 04:12:00,34.7,32.0,29.66,East,80,1.0,-999.0,89,-99.99,,,0.00,weatherlink.com 1.10,2013-03-31 08:12:00,
2013-03-31 04:27:00,34.2,32.0,29.66,East,80,0.0,-999.0,90,-99.99,,,0.00,weatherlink.com 1.10,2013-03-31 08:27:00,
2013-03-31 04:42:00,33.3,31.0,29.66,East,81,0.0,-999.0,90,-99.99,,,0.00,weatherlink.com 1.10,2013-03-31 08:42:00,
2013-03-31 04:57:00,32.8,31.0,29.65,East,81,0.0,-999.0,91,-99.99,,,0.00,weatherlink.com 1.10,2013-03-31 08:57:00,
2013-03-31 05:12:00,32.4,30.0,29.65,East,81,0.0,-999.0,92,-99.99,,,0.00,weatherlink.com 1.10,2013-03-31 09:12:00,
2013-03-31 05:27:00,32.0,30.0,29.64,East,81,0.0,-999.0,92,-99.99,,,0.00,weatherlink.com 1.10,2013-03-31 09:27:00,
2013-03-31 05:42:00,31.9,30.0,29.63,East,80,0.0,-999.0,93,-99.99,,,0.00,weatherlink.com 1.10,2013-03-31 09:42:00,
2013-03-31 05:57:00,32.6,31.0,29.63,NW,314,1.0,-999.0,94,-99.99,,,0.00,weatherlink.com 1.10,2013-03-31 09:57:00,
2013-03-31 06:12:00,33.7,32.0,29.63,SE,128,0.0,-999.0,92,-99.99,,,0.00,weatherlink.com 1.10,2013-03-31 10:12:00,
2013-03-31 06:27:00,34.4,32.0,29.62,NE,48,0.0,-999.0,90,-99.99,,,0.00,weatherlink.com 1.10,2013-03-31 10:27:00,
2013-03-31 06:42:00,34.7,32.0,29.62,NE,49,0.0,-999.0,88,-99.99,,,0.00,weatherlink.com 1.10,2013-03-31 10:42:00,
2013-03-31 06:57:00,34.9,32.0,29.62,SE,146,0.0,-999.0,88,-99.99,,,0.00,weatherlink.com 1.10,2013-03-31 10:57:00,
2013-03-31 07:12:00,34.7,31.0,29.62,SE,145,0.0,-999.0,87,-99.99,,,0.00,weatherlink.com 1.10,2013-03-31 11:12:00,
2013-03-31 07:27:00,34.1,31.0,29.61,East,94,1.0,-999.0,87,-99.99,,,0.00,weatherlink.com 1.10,2013-03-31 11:27:00,
2013-03-31 07:42:00,33.9,31.0,29.61,East,94,0.0,-999.0,88,-99.99,,,0.00,weatherlink.com 1.10,2013-03-31 11:42:00,
2013-03-31 07:57:00,34.5,31.0,29.61,SE,145,0.0,-999.0,87,-99.99,,,0.00,weatherlink.com 1.10,2013-03-31 11:57:00,
2013-03-31 08:12:00,34.8,31.0,29.61,SW,232,0.0,-999.0,86,-99.99,,,0.00,weatherlink.com 1.10,2013-03-31 12:12:00,
2013-03-31 08:27:00,35.0,31.0,29.61,SW,227,0.0,-999.0,85,-99.99,,,0.00,weatherlink.com 1.10,2013-03-31 12:27:00,
2013-03-31 08:42:00,35.3,31.0,29.61,SW,225,0.0,-999.0,84,-99.99,,,0.00,weatherlink.com 1.10,2013-03-31 12:42:00,
2013-03-31 08:57:00,35.7,31.0,29.61,SW,225,1.0,-999.0,82,-99.99,,,0.00,weatherlink.com 1.10,2013-03-31 12:57:00,
2013-03-31 09:12:00,36.1,31.0,29.60,SW,227,2.0,-999.0,80,-99.99,,,0.00,weatherlink.com 1.10,2013-03-31 13:12:00,
2013-03-31 09:27:00,36.3,30.0,29.60,WSW,241,0.0,-999.0,78,-99.99,,,0.00,weatherlink.com 1.10,2013-03-31 13:27:00,
2013-03-31 09:42:00,36.4,30.0,29.60,SW,229,1.0,-999.0,76,-99.99,,,0.00,weatherlink.com 1.10,2013-03-31 13:42:00,
2013-03-31 09:57:00,36.6,30.0,29.59,SW,236,0.0,-999.0,76,-99.99,,,0.00,weatherlink.com 1.10,2013-03-31 13:57:00,
2013-03-31 10:12:00,37.7,31.0,29.59,NNE,21,1.0,-999.0,76,-99.99,,,0.00,weatherlink.com 1.10,2013-03-31 14:12:00,
2013-03-31 10:27:00,39.1,31.0,29.59,SW,225,1.0,-999.0,74,-99.99,,,0.00,weatherlink.com 1.10,2013-03-31 14:27:00,
2013-03-31 10:42:00,39.9,32.0,29.58,SW,219,0.0,-999.0,72,-99.99,,,0.00,weatherlink.com 1.10,2013-03-31 14:42:00,
2013-03-31 10:57:00,40.9,32.0,29.57,WNW,288,3.0,-999.0,70,-99.99,,,0.00,weatherlink.com 1.10,2013-03-31 14:57:00,
2013-03-31 11:12:00,41.7,31.0,29.57,WSW,238,2.0,-999.0,67,-99.99,,,0.00,weatherlink.com 1.10,2013-03-31 15:12:00,
2013-03-31 11:27:00,41.8,31.0,29.57,SSW,213,3.0,-999.0,66,-99.99,,,0.00,weatherlink.com 1.10,2013-03-31 15:27:00,
2013-03-31 11:42:00,41.1,30.0,29.58,SW,229,0.0,-999.0,66,-99.99,,,0.00,weatherlink.com 1.10,2013-03-31 15:42:00,
2013-03-31 11:57:00,41.3,30.0,29.58,SE,144,2.0,-999.0,65,-99.99,,,0.00,weatherlink.com 1.10,2013-03-31 15:57:00,
2013-03-31 12:12:00,40.1,29.0,29.59,West,265,1.0,-999.0,66,-99.99,,,0.00,weatherlink.com 1.10,2013-03-31 16:12:00,
2013-03-31 12:27:00,40.3,29.0,29.59,WNW,303,1.0,-999.0,65,-99.99,,,0.00,weatherlink.com 1.10,2013-03-31 16:27:00,
2013-03-31 12:42:00,39.7,28.0,29.59,NW,304,1.0,-999.0,64,-99.99,,,0.00,weatherlink.com 1.10,2013-03-31 16:42:00,
2013-03-31 12:57:00,40.6,28.0,29.59,North,5,1.0,-999.0,62,-99.99,,,0.00,weatherlink.com 1.10,2013-03-31 16:57:00,
2013-03-31 13:12:00,40.4,28.0,29.59,NW,319,2.0,-999.0,62,-99.99,,,0.00,weatherlink.com 1.10,2013-03-31 17:12:00,
2013-03-31 13:27:00,40.6,26.0,29.58,NW,318,2.0,-999.0,57,-99.99,,,0.00,weatherlink.com 1.10,2013-03-31 17:27:00,
2013-03-31 13:57:00,40.8,26.0,29.58,WSW,256,0.0,-999.0,55,-99.99,,,0.00,weatherlink.com 1.10,2013-03-31 17:57:00,
2013-03-31 14:12:00,40.0,24.0,29.59,NW,304,2.0,-999.0,54,-99.99,,,0.00,weatherlink.com 1.10,2013-03-31 18:12:00,
2013-03-31 14:27:00,38.4,23.0,29.60,NW,308,2.0,-999.0,55,-99.99,,,0.00,weatherlink.com 1.10,2013-03-31 18:27:00,
2013-03-31 14:42:00,38.0,23.0,29.61,NW,312,0.0,-999.0,54,-99.99,,,0.00,weatherlink.com 1.10,2013-03-31 18:42:00,
2013-03-31 14:57:00,38.9,22.0,29.61,NNW,338,3.0,-999.0,51,-99.99,,,0.00,weatherlink.com 1.10,2013-03-31 18:57:00,
2013-03-31 15:12:00,37.4,25.0,29.62,WSW,237,1.0,-999.0,61,-99.99,,,0.00,weatherlink.com 1.10,2013-03-31 19:12:00,
2013-03-31 15:27:00,36.2,25.0,29.62,North,5,4.0,-999.0,64,-99.99,,,0.00,weatherlink.com 1.10,2013-03-31 19:27:00,
2013-03-31 15:42:00,36.1,26.0,29.64,SW,236,1.0,-999.0,68,-99.99,,,0.00,weatherlink.com 1.10,2013-03-31 19:42:00,
2013-03-31 15:57:00,36.2,23.0,29.64,SW,229,3.0,-999.0,59,-99.99,,,0.00,weatherlink.com 1.10,2013-03-31 19:57:00,
2013-03-31 16:12:00,37.1,25.0,29.64,South,188,2.0,-999.0,61,-99.99,,,0.00,weatherlink.com 1.10,2013-03-31 20:12:00,
2013-03-31 16:27:00,36.1,25.0,29.65,SW,236,2.0,-999.0,65,-99.99,,,0.00,weatherlink.com 1.10,2013-03-31 20:27:00,
2013-03-31 16:42:00,34.2,26.0,29.67,WSW,258,2.0,-999.0,73,-99.99,,,0.00,weatherlink.com 1.10,2013-03-31 20:42:00,
2013-03-31 16:57:00,30.8,27.0,29.69,NE,37,1.0,-999.0,87,-99.99,,,0.00,weatherlink.com 1.10,2013-03-31 20:57:00,
2013-03-31 17:12:00,29.9,26.0,29.70,NNW,348,1.0,-999.0,84,-99.99,,,0.00,weatherlink.com 1.10,2013-03-31 21:12:00,
2013-03-31 17:27:00,29.2,24.0,29.71,NNW,327,1.0,-999.0,82,-99.99,,,0.00,weatherlink.com 1.10,2013-03-31 21:27:00,
2013-03-31 17:42:00,29.2,24.0,29.72,North,9,1.0,-999.0,80,-99.99,,,0.00,weatherlink.com 1.10,2013-03-31 21:42:00,
2013-03-31 17:57:00,28.9,23.0,29.73,WSW,254,0.0,-999.0,79,-99.99,,,0.00,weatherlink.com 1.10,2013-03-31 21:57:00,
2013-03-31 18:12:00,28.6,24.0,29.73,ESE,115,0.0,-999.0,81,-99.99,,,0.00,weatherlink.com 1.10,2013-03-31 22:12:00,
2013-03-31 18:28:00,28.1,22.0,29.75,WSW,247,0.0,-999.0,77,-99.99,,,0.00,weatherlink.com 1.10,2013-03-31 22:28:00,
2013-03-31 18:42:00,27.8,21.0,29.76,NNE,13,0.0,-999.0,74,-99.99,,,0.00,weatherlink.com 1.10,2013-03-31 22:42:00,
2013-03-31 18:57:00,27.5,21.0,29.77,SSE,153,3.0,-999.0,77,-99.99,,,0.00,weatherlink.com 1.10,2013-03-31 22:57:00,
2013-03-31 19:12:00,26.9,21.0,29.77,North,5,10.0,-999.0,77,-99.99,,,0.00,weatherlink.com 1.10,2013-03-31 23:12:00,
2013-03-31 19:27:00,26.0,21.0,29.78,ESE,107,0.0,-999.0,82,-99.99,,,0.00,weatherlink.com 1.10,2013-03-31 23:27:00,
2013-03-31 19:42:00,25.4,21.0,29.79,NNE,30,1.0,-999.0,83,-99.99,,,0.00,weatherlink.com 1.10,2013-03-31 23:42:00,
2013-03-31 19:57:00,24.9,21.0,29.80,NNE,18,0.0,-999.0,84,-99.99,,,0.00,weatherlink.com 1.10,2013-03-31 23:57:00,
2013-03-31 20:12:00,24.9,21.0,29.80,West,273,0.0,-999.0,86,-99.99,,,0.00,weatherlink.com 1.10,2013-04-01 00:12:00,
2013-03-31 20:27:00,25.1,19.0,29.82,NE,45,2.0,-999.0,79,-99.99,,,0.00,weatherlink.com 1.10,2013-04-01 00:27:00,
2013-03-31 20:42:00,24.9,20.0,29.82,North,360,2.0,-999.0,81,-99.99,,,0.00,weatherlink.com 1.10,2013-04-01 00:42:00,
2013-03-31 20:57:00,24.7,21.0,29.82,NNE,17,1.0,-999.0,84,-99.99,,,0.00,weatherlink.com 1.10,2013-04-01 00:57:00,
2013-03-31 21:12:00,24.5,21.0,29.83,NNW,339,0.0,-999.0,86,-99.99,,,0.00,weatherlink.com 1.10,2013-04-01 01:12:00,
2013-03-31 21:27:00,24.8,21.0,29.83,SSW,213,1.0,-999.0,86,-99.99,,,0.00,weatherlink.com 1.10,2013-04-01 01:27:00,
2013-03-31 21:42:00,24.6,21.0,29.84,SSW,196,0.0,-999.0,87,-99.99,,,0.00,weatherlink.com 1.10,2013-04-01 01:42:00,
2013-03-31 21:57:00,24.5,21.0,29.85,NNE,18,0.0,-999.0,87,-99.99,,,0.00,weatherlink.com 1.10,2013-04-01 01:57:00,
2013-03-31 22:12:00,24.2,21.0,29.85,North,355,1.0,-999.0,87,-99.99,,,0.00,weatherlink.com 1.10,2013-04-01 02:12:00,
2013-03-31 22:27:00,24.2,20.0,29.86,WNW,295,1.0,-999.0,84,-99.99,,,0.00,weatherlink.com 1.10,2013-04-01 02:27:00,
2013-03-31 22:42:00,24.2,19.0,29.86,NE,49,1.0,-999.0,82,-99.99,,,0.00,weatherlink.com 1.10,2013-04-01 02:42:00,
2013-03-31 22:57:00,23.7,20.0,29.86,NNE,23,3.0,-999.0,85,-99.99,,,0.00,weatherlink.com 1.10,2013-04-01 02:57:00,
2013-03-31 23:15:00,23.7,20.0,29.87,NW,307,0.0,-999.0,85,-99.99,,,0.00,weatherlink.com 1.10,2013-04-01 03:15:00,
2013-03-31 23:27:00,23.6,19.0,29.87,NE,36,0.0,-999.0,83,-99.99,,,0.00,weatherlink.com 1.10,2013-04-01 03:27:00,
2013-03-31 23:42:00,23.4,20.0,29.88,WNW,301,0.0,-999.0,85,-99.99,,,0.00,weatherlink.com 1.10,2013-04-01 03:42:00,
2013-03-31 23:57:00,22.9,19.0,29.88,NNW,333,2.0,-999.0,86,-99.99,,,0.00,weatherlink.com 1.10,2013-04-01 03:57:00,